Home   Weather   Porto Velho   Past weeks
Flag for Brazil

Past Weather in Porto Velho, Rondônia, Brazil — Yesterday and Last 2 Weeks

Now
86 °F

Sunny.


Feels Like: 92 °F
Forecast: 95 / 70 °F
Wind: No wind

Location: Porto Velho Aeroporto

Current Time: Jul 16, 2019 at 10:24:49 am

Latest Report: Jul 16, 2019 at 9:00 am


Visibility: 10 mi

Pressure: 29.98 "Hg

Humidity: 62%

Dew Point: 72 °F

Location of Porto VelhoLocation

Past Weather in Porto Velho — Graph

°F

Porto Velho Temperature Yesterday

Maximum temperature yesterday: 93 °F (at 1:00 pm)
Minimum temperature yesterday: 73 °F (at 4:00 am)
Average temperature yesterday: 81 °F

High & Low Weather Summary for the Past Weeks

 TemperatureHumidityPressure
High95 °F (Jul 1, 3:00 pm)94% (Jul 15, 11:00 pm)30.09 "Hg (Jul 15, 11:00 pm)
Low64 °F (Jul 7, 3:00 am)33% (Jul 1, 6:00 pm)29.77 "Hg (Jul 2, 3:00 pm)
Average79 °F71%29.91 "Hg
* Reported Jul 1 9:00 am — Jul 16 9:00 am, Porto Velho. Weather by CustomWeather, © 2019

Note: Actual official high and low records may vary slightly from our data, if they occured in-between our weather recording intervals... More about our weather records

Advertising

Porto Velho Weather History for the Previous 24 Hours

Scroll right to see more
 ConditionsComfort  
Time TempWeatherWind HumidityBarometerVisibility
9:00 am
Tue, Jul 16
86 °FSunny.No wind62%29.98 "Hg10 mi
8:00 am81 °FSunny.No wind79%29.95 "Hg10 mi
7:00 am73 °FClear.No wind94%29.92 "Hg5 mi
6:00 am73 °FClear.No wind94%29.92 "Hg10 mi
5:00 am73 °FPassing clouds.2 mph94%29.89 "HgN/A
4:00 am73 °FPassing clouds.No wind94%29.89 "HgN/A
3:00 am75 °FClear.No wind94%29.89 "Hg10 mi
2:00 am75 °FClear.1 mph94%29.89 "Hg10 mi
1:00 am75 °FClear.No wind94%29.89 "Hg10 mi
12:00 am75 °FClear.No wind89%29.89 "Hg10 mi
11:00 pm
Mon, Jul 15
75 °FClear.No wind94%29.89 "Hg10 mi
10:00 pm77 °FClear.No wind83%29.89 "Hg10 mi
9:00 pm77 °FClear.No wind83%29.86 "Hg10 mi
8:00 pm79 °FClear.No wind79%29.83 "Hg10 mi
7:00 pm81 °FClear.2 mph74%29.80 "Hg10 mi
6:00 pm84 °FPassing clouds.2 mph66%29.80 "HgN/A
5:00 pm90 °FPassing clouds.2 mph55%29.77 "HgN/A
4:00 pm91 °FScattered clouds.3 mph41%29.80 "HgN/A
3:00 pm82 °FPartly sunny.1 mph84%29.83 "HgN/A
2:00 pm93 °FScattered clouds.8 mph39%29.86 "HgN/A
1:00 pm93 °FScattered clouds.8 mph41%29.89 "HgN/A
12:00 pm91 °FScattered clouds.5 mph46%29.92 "HgN/A
11:00 am88 °FSunny.5 mph55%29.92 "Hg10 mi
10:00 am84 °FSunny.2 mph89%29.95 "Hg10 mi
Weather by CustomWeather, © 2019

See weather overview

LIVE PARTIAL LUNAR ECLIPSE – Watch the eclipse as it happens